GW4974 Weather Reports


time (UTC)temp
C
wind
direction
speed
KPH
gust
KPH
rain 1hr
cm
rain 24hr
cm
rain mn
cm
humidity
%
barometer
mb
20260506081221 17 236 3.2 4.8 0.00 0.00 0.00 64 1009.1
20260506080719 17 202 3.2 6.4 0.00 0.00 0.00 63 1009.1
20260506080215 17 192 1.6 4.8 0.00 0.00 0.00 63 1009.3
20260506073159 18 150 0.0 6.4 0.00 0.00 0.00 59 1009.0
20260506072656 18 238 4.8 8.0 0.00 0.00 0.00 57 1009.1
20260506072154 18 256 3.2 4.8 0.00 0.00 0.00 56 1009.0
20260506071651 18 190 3.2 6.4 0.00 0.00 0.00 54 1009.2
20260506071149 18 180 1.6 4.8 0.00 0.00 0.00 54 1009.1
20260506070645 18 248 3.2 6.4 0.00 0.00 0.00 54 1009.1
20260506070142 18 253 3.2 8.0 0.00 0.00 0.00 53 1009.0
20260506062120 18 178 3.2 6.4 0.00 0.00 0.00 55 1009.3
20260506061615 18 53 4.8 8.0 0.00 0.00 0.00 53 1009.5
20260506061114 18 268 3.2 6.4 0.00 0.00 0.00 54 1009.3
20260506060612 19 14 0.0 3.2 0.00 0.00 0.00 52 1009.3
20260506060108 18 100 1.6 4.8 0.00 0.00 0.00 52 1009.2
20260506051040 17 359 1.6 3.2 0.00 0.00 0.00 65 1009.9
20260506050538 17 314 1.6 3.2 0.00 0.00 0.00 63 1010.0
20260506045029 17 119 0.0 3.2 0.00 0.00 0.00 61 1010.1
20260506044527 17 143 0.0 3.2 0.00 0.00 0.00 62 1010.2
20260506044023 17 23 0.0 3.2 0.00 0.00 0.00 63 1010.2
20260506043520 17 303 1.6 4.8 0.00 0.00 0.00 63 1010.2
20260506043019 16 324 0.0 4.8 0.00 0.00 0.00 64 1010.1
20260506042518 17 296 1.6 3.2 0.00 0.00 0.00 66 1009.9
20260506042015 16 300 0.0 4.8 0.00 0.00 0.00 65 1010.0
20260506041514 16 304 1.6 3.2 0.00 0.00 0.00 67 1010.1
20260506041010 16 259 1.6 3.2 0.00 0.00 0.00 66 1010.0
20260506040508 16 49 0.0 4.8 0.00 0.00 0.00 68 1010.0
20260506040003 16 302 0.0 4.8 0.00 0.00 0.00 67 1010.0
20260506035500 16 319 1.6 3.2 0.00 0.00 0.00 68 1010.1
20260506034957 16 248 0.0 3.2 0.00 0.00 0.00 67 1010.2
20260506034455 16 335 0.0 3.2 0.00 0.00 0.00 70 1009.9
20260506033951 16 317 1.6 3.2 0.00 0.00 0.00 73 1010.0
20260506033449 16 288 1.6 3.2 0.00 0.00 0.00 70 1009.8
20260506032945 16 269 0.0 3.2 0.00 0.00 0.00 69 1009.9
20260506032443 16 190 0.0 1.6 0.00 0.00 0.00 68 1010.0
20260506031939 17 224 0.0 3.2 0.00 0.00 0.00 69 1010.0
20260506031437 17 132 0.0 1.6 0.00 0.00 0.00 64 1010.1
20260506030934 17 306 0.0 3.2 0.00 0.00 0.00 67 1010.0
20260506030432 17 274 0.0 3.2 0.00 0.00 0.00 67 1010.1
20260506025928 17 269 0.0 3.2 0.00 0.00 0.00 67 1010.2
20260506025426 17 110 0.0 3.2 0.00 0.00 0.00 66 1010.2
20260506024922 17 273 0.0 3.2 0.00 0.00 0.00 68 1010.3
20260506024419 16 294 0.0 3.2 0.00 0.00 0.00 68 1010.3
20260506023915 16 287 1.6 4.8 0.00 0.00 0.00 70 1010.3
20260506023412 17 208 1.6 4.8 0.00 0.00 0.00 69 1010.3
20260506022909 17 265 0.0 3.2 0.00 0.00 0.00 67 1010.3
20260506022407 17 269 0.0 1.6 0.00 0.00 0.00 66 1010.5
20260506021904 17 155 0.0 1.6 0.00 0.00 0.00 64 1010.3
20260506021401 17 287 1.6 3.2 0.00 0.00 0.00 66 1010.2
20260506020858 18 252 0.0 1.6 0.00 0.00 0.00 64 1010.3
20260506020356 17 211 1.6 1.6 0.00 0.00 0.00 64 1010.3
20260506015853 17 269 1.6 3.2 0.00 0.00 0.00 66 1010.3
20260506015350 16 294 1.6 3.2 0.00 0.00 0.00 72 1010.4
20260506014847 17 322 1.6 3.2 0.00 0.00 0.00 71 1010.3
20260506014344 17 315 0.0 1.6 0.00 0.00 0.00 68 1010.2
20260506013840 17 269 0.0 0.0 0.00 0.00 0.00 66 1010.3
20260506013338 17 129 0.0 0.0 0.00 0.00 0.00 65 1010.1
20260506012834 18 128 0.0 1.6 0.00 0.00 0.00 64 1010.0
20260506012332 18 104 1.6 3.2 0.00 0.00 0.00 62 1009.9
20260506011829 18 269 0.0 3.2 0.00 0.00 0.00 61 1010.0
20260506011325 18 269 1.6 3.2 0.00 0.00 0.00 62 1010.1
20260506010823 18 331 1.6 3.2 0.00 0.00 0.00 65 1009.9
20260506010320 18 102 0.0 1.6 0.00 0.00 0.00 64 1010.0
20260506005817 18 274 0.0 4.8 0.00 0.00 0.00 63 1010.0
20260506005314 18 351 1.6 3.2 0.00 0.00 0.00 64 1009.8
20260506004810 18 223 0.0 3.2 0.00 0.00 0.00 66 1009.9
20260506004308 18 253 0.0 1.6 0.00 0.00 0.00 66 1009.7
20260506003803 18 221 0.0 1.6 0.00 0.00 0.00 65 1009.7
20260506003300 18 269 0.0 3.2 0.00 0.00 0.00 63 1009.7
20260506002756 19 246 0.0 1.6 0.00 0.00 0.00 63 1009.8
20260506002253 19 263 3.2 3.2 0.00 0.00 0.00 62 1009.8
20260506001749 19 275 1.6 3.2 0.00 0.00 0.00 62 1009.7
20260506001246 20 110 1.6 3.2 0.00 0.00 0.00 60 1009.7
20260506000743 20 292 1.6 3.2 0.00 0.00 0.00 60 1009.6
20260506000241 20 265 0.0 1.6 0.00 0.00 0.00 59 1009.5
20260505235737 20 252 0.0 3.2 0.00 0.00 0.00 58 1009.4
20260505235235 20 258 1.6 3.2 0.00 0.00 0.00 58 1009.5
20260505234732 20 230 0.0 1.6 0.00 0.00 0.00 57 1009.4
20260505234229 20 126 0.0 1.6 0.00 0.00 0.00 57 1009.4
20260505233726 20 126 0.0 0.0 0.00 0.00 0.00 57 1009.4
20260505233224 20 227 0.0 0.0 0.00 0.00 0.00 58 1009.5
20260505232721 21 238 1.6 3.2 0.00 0.00 0.00 57 1009.3
20260505232218 21 222 0.0 0.0 0.00 0.00 0.00 57 1009.3
20260505231715 21 210 0.0 3.2 0.00 0.00 0.00 56 1009.5
20260505231214 21 217 0.0 1.6 0.00 0.00 0.00 57 1009.3
20260505230711 21 262 3.2 3.2 0.00 0.00 0.00 60 1009.4
20260505230208 21 241 0.0 1.6 0.00 0.00 0.00 60 1009.5
20260505225704 21 222 1.6 1.6 0.00 0.00 0.00 61 1009.4
20260505225201 21 224 0.0 1.6 0.00 0.00 0.00 60 1009.5
20260505224656 21 217 0.0 1.6 0.00 0.00 0.00 61 1009.5
20260505224155 21 227 0.0 1.6 0.00 0.00 0.00 62 1009.5
20260505223652 21 230 0.0 0.0 0.00 0.00 0.00 62 1009.3
20260505223147 21 129 1.6 3.2 0.00 0.00 0.00 61 1009.4
20260505222644 21 216 1.6 3.2 0.00 0.00 0.00 62 1009.5
20260505222140 21 148 1.6 1.6 0.00 0.00 0.00 61 1009.5
20260505221632 21 103 1.6 3.2 0.00 0.00 0.00 65 1009.6
20260505221129 21 144 1.6 3.2 0.00 0.00 0.00 69 1009.7
20260505220626 21 200 0.0 8.0 0.00 0.00 0.00 66 1009.5
20260505220123 20 147 0.0 1.6 0.00 0.00 0.00 67 1009.5
20260505215621 20 155 0.0 4.8 0.00 0.00 0.00 66 1009.7
20260505215119 20 196 0.0 3.2 0.00 0.00 0.00 67 1009.5
20260505214617 20 214 3.2 3.2 0.00 0.00 0.00 66 1009.6
20260505214114 20 213 3.2 3.2 0.00 0.00 0.00 66 1009.8
20260505213612 20 140 3.2 3.2 0.00 0.00 0.00 68 1009.8
20260505213108 20 148 3.2 3.2 0.00 0.00 0.00 66 1009.6
20260505212604 20 147 0.0 0.0 0.00 0.00 0.00 67 1009.7
20260505212102 20 120 3.2 3.2 0.00 0.00 0.00 61 1009.7
20260505211558 20 271 3.2 3.2 0.00 0.00 0.00 62 1009.7
20260505211055 20 245 3.2 6.4 0.05 0.00 0.00 65 1009.6
20260505210551 20 231 4.8 6.4 0.05 0.00 0.00 64 1009.7
20260505210049 22 133 0.0 6.4 0.00 0.00 0.00 54 1009.5
20260505205546 23 237 3.2 3.2 0.00 0.00 0.00 48 1009.6
20260505205044 23 249 3.2 4.8 0.00 0.00 0.00 45 1009.1
20260505204541 23 155 0.0 4.8 0.00 0.00 0.00 46 1008.9
20260505204038 23 205 0.0 1.6 0.00 0.00 0.00 45 1008.9
20260505203534 23 286 0.0 6.4 0.00 0.00 0.00 43 1009.0
20260505203032 23 263 3.2 4.8 0.00 0.00 0.00 43 1008.9
20260505202528 23 163 1.6 6.4 0.00 0.00 0.00 45 1008.9
20260505202023 23 17 0.0 3.2 0.00 0.00 0.00 44 1009.0
20260505201521 23 227 3.2 3.2 0.00 0.00 0.00 48 1009.1
20260505201018 23 132 3.2 4.8 0.00 0.00 0.00 49 1009.2
20260505200516 23 129 0.0 3.2 0.00 0.00 0.00 46 1009.1
20260505200013 23 223 3.2 11.3 0.00 0.00 0.00 45 1009.0
20260505195509 23 234 4.8 4.8 0.00 0.00 0.00 46 1009.0
20260505195007 23 131 0.0 3.2 0.00 0.00 0.00 43 1009.1
20260505194459 23 131 3.2 3.2 0.00 0.00 0.00 43 1009.1
20260505193958 23 218 0.0 4.8 0.00 0.00 0.00 46 1009.1
20260505193456 23 232 3.2 8.0 0.00 0.00 0.00 45 1009.1
20260505192953 23 187 3.2 4.8 0.00 0.00 0.00 43 1009.1
20260505192451 23 230 3.2 8.0 0.00 0.00 0.00 41 1009.2
20260505191948 24 218 4.8 9.7 0.00 0.00 0.00 39 1009.1
20260505191447 24 191 6.4 9.7 0.00 0.00 0.00 38 1009.0
20260505190944 24 266 3.2 9.7 0.00 0.00 0.00 39 1008.9
20260505190439 24 184 3.2 8.0 0.00 0.00 0.00 39 1009.0
20260505185935 25 197 6.4 11.3 0.00 0.00 0.00 38 1008.9
20260505185433 25 103 3.2 6.4 0.00 0.00 0.00 39 1008.9
20260505184928 25 206 3.2 9.7 0.00 0.00 0.00 38 1008.8
20260505184426 25 215 4.8 9.7 0.00 0.00 0.00 39 1008.9
20260505183922 25 120 4.8 8.0 0.00 0.00 0.00 40 1009.0
20260505183419 24 115 6.4 12.9 0.00 0.00 0.00 39 1008.9
20260505182916 24 119 6.4 19.3 0.00 0.00 0.00 38 1008.8
20260505182412 25 102 8.0 9.7 0.00 0.00 0.00 38 1008.6
20260505181908 26 227 6.4 14.5 0.00 0.00 0.00 38 1009.0
20260505181406 26 137 6.4 11.3 0.00 0.00 0.00 35 1009.0
20260505180902 26 84 3.2 11.3 0.00 0.00 0.00 38 1009.2
20260505180359 25 60 3.2 6.4 0.00 0.00 0.00 38 1009.3
20260505175855 25 134 6.4 6.4 0.00 0.00 0.00 37 1009.2
20260505175352 26 153 3.2 8.0 0.00 0.00 0.00 38 1009.3
20260505174848 25 111 3.2 9.7 0.00 0.00 0.00 38 1009.6
20260505174346 25 182 1.6 11.3 0.00 0.00 0.00 39 1009.5
20260505173842 26 170 3.2 8.0 0.00 0.00 0.00 38 1009.5
20260505173339 26 326 3.2 14.5 0.00 0.00 0.00 38 1009.6
20260505172836 26 206 9.7 14.5 0.00 0.00 0.00 38 1009.4
20260505172334 26 111 3.2 8.0 0.00 0.00 0.00 40 1009.6
20260505171833 25 97 12.9 17.7 0.00 0.00 0.00 39 1009.7
20260505171330 25 148 6.4 8.0 0.00 0.00 0.00 43 1009.8
20260505170826 25 224 3.2 8.0 0.00 0.00 0.00 46 1009.7
20260505170323 24 86 4.8 11.3 0.00 0.00 0.00 42 1009.7
20260505165819 25 260 9.7 9.7 0.00 0.00 0.00 41 1009.9
20260505165314 25 259 3.2 6.4 0.00 0.00 0.00 42 1009.7
20260505164810 24 189 4.8 8.0 0.00 0.00 0.00 43 1009.7
20260505164308 24 147 8.0 8.0 0.00 0.00 0.00 43 1009.8
20260505163806 25 106 6.4 6.4 0.00 0.00 0.00 42 1010.0
20260505163304 24 180 0.0 9.7 0.00 0.00 0.00 45 1009.9
20260505162802 23 246 4.8 14.5 0.00 0.00 0.00 44 1010.0
20260505162258 23 268 6.4 11.3 0.00 0.00 0.00 44 1009.8
20260505161755 23 138 4.8 11.3 0.00 0.00 0.00 45 1009.9
20260505161252 24 130 4.8 9.7 0.00 0.00 0.00 45 1010.0
20260505160750 24 235 6.4 9.7 0.00 0.00 0.00 44 1010.1
20260505160247 25 129 8.0 8.0 0.00 0.00 0.00 42 1010.3
20260505153226 25 127 8.0 8.0 0.00 0.00 0.00 46 1010.8
20260505152724 25 204 3.2 12.9 0.00 0.00 0.00 45 1010.6
20260505152220 25 247 9.7 17.7 0.00 0.00 0.00 44 1010.6
20260505151714 24 225 4.8 14.5 0.00 0.00 0.00 45 1010.5
20260505151212 24 71 3.2 9.7 0.00 0.00 0.00 47 1010.5
20260505150708 23 224 8.0 8.0 0.00 0.00 0.00 49 1010.4
20260505150206 23 284 4.8 6.4 0.00 0.00 0.00 51 1010.3
20260505140639 22 269 4.8 16.1 0.00 0.00 0.00 52 1010.4
20260505140136 22 111 3.2 11.3 0.00 0.00 0.00 53 1010.1
20260505124549 19 234 1.6 9.7 0.00 0.00 0.00 58 1010.4
20260505124045 19 67 3.2 6.4 0.00 0.00 0.00 59 1010.4
20260505123542 18 153 3.2 6.4 0.00 0.00 0.00 60 1010.3
20260505123038 18 227 1.6 6.4 0.00 0.00 0.00 61 1010.5
20260505122535 18 80 0.0 6.4 0.00 0.00 0.00 61 1010.6
20260505122032 18 177 0.0 4.8 0.00 0.00 0.00 65 1010.6
20260505121528 17 131 3.2 4.8 0.00 0.00 0.00 65 1010.6
20260505121025 17 204 1.6 6.4 0.00 0.00 0.00 65 1010.7
20260505120522 17 125 3.2 6.4 0.00 0.00 0.00 66 1010.9
20260505120017 17 54 0.0 6.4 0.00 0.00 0.00 66 1010.8
20260505115512 17 178 3.2 3.2 0.00 0.00 0.00 67 1010.7
20260505115010 17 187 6.4 6.4 0.00 0.00 0.00 67 1010.8
20260505114507 17 278 0.0 4.8 0.00 0.00 0.00 67 1010.7
20260505114003 17 156 1.6 3.2 0.00 0.00 0.00 66 1010.6
20260505113500 17 241 0.0 4.8 0.00 0.00 0.00 66 1010.7
20260505112955 17 136 1.6 4.8 0.00 0.00 0.00 64 1010.5
20260505112453 17 140 8.0 8.0 0.00 0.00 0.00 63 1010.5
20260505111950 17 124 3.2 4.8 0.00 0.00 0.00 65 1010.7
20260505111449 17 266 6.4 6.4 0.00 0.00 0.00 65 1010.5
20260505110946 16 125 3.2 6.4 0.00 0.00 0.00 65 1010.6
20260505110443 16 73 0.0 6.4 0.00 0.00 0.00 65 1010.5
20260505101908 16 110 1.6 4.8 0.00 0.00 0.00 69 1010.1
20260505101402 15 233 3.2 6.4 0.00 0.00 0.00 66 1010.1
20260505100859 16 215 3.2 6.4 0.00 0.00 0.00 65 1010.0
20260505100355 15 336 1.6 6.4 0.00 0.00 0.00 67 1010.0
20260505095851 15 230 1.6 3.2 0.00 0.00 0.00 69 1010.0
20260505095349 15 242 6.4 6.4 0.00 0.00 0.00 70 1010.1
20260505094845 15 178 0.0 4.8 0.00 0.00 0.00 71 1010.2
20260505094342 15 274 3.2 3.2 0.00 0.00 0.00 71 1009.9
20260505093837 15 291 0.0 3.2 0.00 0.00 0.00 71 1010.0
20260505093335 15 311 0.0 4.8 0.00 0.00 0.00 71 1010.1
20260505092832 14 305 3.2 4.8 0.00 0.00 0.00 72 1010.0
20260505092330 14 205 4.8 4.8 0.00 0.00 0.00 72 1010.2
20260505091827 15 288 3.2 4.8 0.00 0.00 0.00 72 1010.2
20260505091325 15 284 3.2 4.8 0.00 0.00 0.00 72 1010.1
20260505090823 15 323 3.2 3.2 0.00 0.00 0.00 69 1009.8
20260505090321 16 277 4.8 4.8 0.00 0.00 0.00 66 1009.5
20260505085818 16 173 3.2 6.4 0.00 0.00 0.00 65 1009.3
20260505085316 15 61 0.0 6.4 0.00 0.00 0.00 67 1009.4
20260505084813 15 264 0.0 6.4 0.00 0.00 0.00 67 1009.3
20260505084312 15 92 0.0 6.4 0.00 0.00 0.00 67 1009.4
20260505083808 15 237 3.2 3.2 0.00 0.00 0.00 70 1009.3
20260505083306 16 320 3.2 8.0 0.00 0.00 0.00 67 1009.3
20260505082801 16 300 3.2 6.4 0.00 0.00 0.00 67 1009.3
20260505082259 16 255 3.2 4.8 0.00 0.00 0.00 66 1009.5
20260505081754 16 110 1.6 6.4 0.00 0.00 0.00 66 1009.5